TimePST,TemperatureF,Dew PointF,Humidity,Sea Level PressureIn,VisibilityMPH,Wind Direction,Wind SpeedMPH,Gust SpeedMPH,PrecipitationIn,Events,Conditions,WindDirDegrees,DateUTC
12:15 AM,46.0,30.0,54,29.82,10.0,SSW,26.5,39.1,N/A,,Scattered Clouds,200,2014-01-03 08:15:00
12:35 AM,46.0,29.8,53,29.81,10.0,SSW,33.4,44.9,N/A,,Mostly Cloudy,200,2014-01-03 08:35:00
12:55 AM,45.7,29.7,54,29.79,10.0,SSW,36.8,49.5,N/A,,Mostly Cloudy,200,2014-01-03 08:55:00
1:15 AM,45.5,29.5,54,29.78,10.0,SSW,35.7,47.2,N/A,,Overcast,200,2014-01-03 09:15:00
1:35 AM,45.5,29.5,54,29.79,10.0,SSW,32.2,49.5,N/A,,Overcast,210,2014-01-03 09:35:00
1:55 AM,45.3,29.5,54,29.82,10.0,SW,23.0,44.9,N/A,,Overcast,220,2014-01-03 09:55:00
2:15 AM,44.4,30.0,57,29.82,10.0,SSW,25.3,33.4,N/A,,Overcast,210,2014-01-03 10:15:00
2:35 AM,43.9,30.7,60,29.84,10.0,SW,20.7,31.1,N/A,,Overcast,220,2014-01-03 10:35:00
2:55 AM,43.0,30.9,62,29.84,10.0,SW,16.1,26.5,N/A,,Overcast,230,2014-01-03 10:55:00
3:15 AM,42.1,31.1,65,29.86,10.0,SW,16.1,27.6,N/A,,Overcast,230,2014-01-03 11:15:00
3:35 AM,41.5,31.1,66,29.86,10.0,SW,16.1,21.9,N/A,,Overcast,220,2014-01-03 11:35:00
3:55 AM,41.9,31.8,67,29.88,10.0,WSW,18.4,28.8,N/A,,Overcast,250,2014-01-03 11:55:00
4:15 AM,41.5,33.3,72,29.89,7.0,WSW,20.7,32.2,N/A,,Overcast,250,2014-01-03 12:15:00
4:35 AM,40.1,34.3,80,29.88,5.0,SW,19.6,24.2,N/A,,Overcast,230,2014-01-03 12:35:00
4:55 AM,39.4,34.3,82,29.90,10.0,WSW,20.7,28.8,N/A,,Overcast,240,2014-01-03 12:55:00
5:15 AM,39.4,33.4,79,29.91,10.0,WSW,17.3,23.0,N/A,,Overcast,240,2014-01-03 13:15:00
5:35 AM,39.6,32.9,77,29.90,10.0,WSW,18.4,-,N/A,,Overcast,240,2014-01-03 13:35:00
6:00 AM,40.3,32.0,72,29.92,10.0,West,9.2,33.4,N/A,,Overcast,280,2014-01-03 14:00:00
6:15 AM,39.9,32.0,73,29.93,10.0,West,10.4,19.6,N/A,,Overcast,280,2014-01-03 14:15:00
6:35 AM,38.5,32.4,79,29.92,10.0,West,8.1,-,N/A,,Overcast,270,2014-01-03 14:35:00
6:55 AM,38.3,32.0,78,29.93,10.0,WSW,15.0,23.0,N/A,,Overcast,250,2014-01-03 14:55:00
7:15 AM,38.3,30.9,75,29.94,10.0,West,12.7,18.4,N/A,,Mostly Cloudy,260,2014-01-03 15:15:00
7:35 AM,38.5,29.5,70,29.95,10.0,West,12.7,26.5,N/A,,Mostly Cloudy,260,2014-01-03 15:35:00
7:55 AM,37.9,28.0,68,29.96,10.0,West,11.5,-,N/A,,Mostly Cloudy,260,2014-01-03 15:55:00
8:15 AM,37.4,28.0,69,29.97,10.0,WSW,16.1,21.9,N/A,,Mostly Cloudy,250,2014-01-03 16:15:00
8:35 AM,38.1,28.6,69,29.97,10.0,WSW,13.8,19.6,N/A,,Overcast,250,2014-01-03 16:35:00
8:55 AM,38.7,27.5,64,29.98,10.0,WSW,17.3,20.7,N/A,,Mostly Cloudy,240,2014-01-03 16:55:00
9:15 AM,38.5,27.3,64,29.99,10.0,West,10.4,21.9,N/A,,Scattered Clouds,260,2014-01-03 17:15:00
9:35 AM,39.2,28.6,66,30.00,10.0,WSW,13.8,17.3,N/A,,Mostly Cloudy,240,2014-01-03 17:35:00
9:55 AM,40.5,27.7,60,30.00,10.0,West,9.2,-,N/A,,Overcast,260,2014-01-03 17:55:00
10:15 AM,39.9,26.6,59,30.00,10.0,West,11.5,16.1,N/A,,Overcast,270,2014-01-03 18:15:00
10:35 AM,39.4,25.5,58,29.99,10.0,West,9.2,-,N/A,,Overcast,260,2014-01-03 18:35:00
10:55 AM,39.2,24.6,56,29.99,10.0,West,16.1,25.3,N/A,,Overcast,260,2014-01-03 18:55:00
11:15 AM,38.8,23.0,53,29.98,10.0,WNW,12.7,21.9,N/A,,Mostly Cloudy,290,2014-01-03 19:15:00
11:35 AM,40.3,24.6,54,29.98,10.0,WSW,17.3,23.0,N/A,,Overcast,250,2014-01-03 19:35:00
11:55 AM,40.8,24.6,53,29.97,10.0,WSW,18.4,-,N/A,,Overcast,250,2014-01-03 19:55:00
12:15 PM,40.8,23.9,51,29.97,10.0,West,19.6,27.6,N/A,,Overcast,260,2014-01-03 20:15:00
12:35 PM,40.1,23.2,51,29.97,10.0,West,12.7,-,N/A,,Mostly Cloudy,260,2014-01-03 20:35:00
12:55 PM,39.9,23.7,52,29.97,10.0,WSW,18.4,26.5,N/A,,Scattered Clouds,250,2014-01-03 20:55:00
1:15 PM,39.9,22.8,50,29.97,10.0,West,15.0,25.3,N/A,,Scattered Clouds,260,2014-01-03 21:15:00
1:35 PM,39.9,23.4,52,29.98,10.0,West,15.0,26.5,N/A,,Mostly Cloudy,280,2014-01-03 21:35:00
1:55 PM,39.0,24.4,56,29.98,10.0,West,11.5,-,N/A,,Overcast,270,2014-01-03 21:55:00
2:15 PM,37.9,24.1,57,29.99,10.0,West,9.2,19.6,N/A,,Overcast,280,2014-01-03 22:15:00
2:35 PM,35.6,25.0,65,30.00,7.0,WNW,8.1,16.1,N/A,,Overcast,300,2014-01-03 22:35:00
2:55 PM,36.0,24.8,64,30.00,10.0,WNW,8.1,-,N/A,,Overcast,300,2014-01-03 22:55:00
3:15 PM,37.4,24.8,60,30.00,10.0,WNW,9.2,-,N/A,,Overcast,300,2014-01-03 23:15:00
3:35 PM,37.8,23.0,55,30.01,10.0,NW,12.7,17.3,N/A,,Overcast,310,2014-01-03 23:35:00
3:55 PM,36.3,23.0,59,30.02,10.0,WNW,8.1,-,N/A,,Overcast,300,2014-01-03 23:55:00
4:15 PM,34.9,23.5,63,30.03,10.0,West,5.8,-,N/A,,Overcast,270,2014-01-04 00:15:00
4:40 PM,33.6,22.1,63,30.03,10.0,NW,6.9,-,N/A,,Overcast,320,2014-01-04 00:40:00
4:55 PM,33.6,21.7,62,30.04,10.0,NW,8.1,-,N/A,,Overcast,320,2014-01-04 00:55:00
5:15 PM,33.4,21.7,62,30.04,10.0,North,6.9,-,N/A,,Overcast,350,2014-01-04 01:15:00
5:35 PM,32.4,23.5,70,30.05,10.0,NNW,6.9,-,N/A,,Overcast,340,2014-01-04 01:35:00
5:55 PM,32.0,23.9,72,30.06,10.0,WNW,5.8,-,N/A,,Overcast,300,2014-01-04 01:55:00
6:15 PM,32.2,23.5,70,30.07,10.0,NNW,9.2,-,N/A,,Overcast,340,2014-01-04 02:15:00
6:35 PM,31.8,24.8,75,30.07,10.0,WNW,6.9,-,N/A,,Overcast,290,2014-01-04 02:35:00
6:55 PM,32.0,24.1,73,30.08,10.0,West,9.2,18.4,N/A,,Overcast,280,2014-01-04 02:55:00
7:15 PM,32.0,24.1,73,30.08,10.0,West,5.8,-,N/A,,Overcast,280,2014-01-04 03:15:00
7:35 PM,32.0,24.4,74,30.08,10.0,West,4.6,-,N/A,,Overcast,260,2014-01-04 03:35:00
7:55 PM,32.0,23.5,71,30.08,10.0,SW,11.5,-,N/A,,Overcast,220,2014-01-04 03:55:00
8:15 PM,32.0,23.0,69,30.09,10.0,SSE,5.8,-,N/A,,Overcast,150,2014-01-04 04:15:00
8:35 PM,31.5,23.9,74,30.09,10.0,ESE,5.8,-,N/A,,Overcast,120,2014-01-04 04:35:00
8:55 PM,30.9,24.1,76,30.10,10.0,Calm,Calm,-,N/A,,Scattered Clouds,0,2014-01-04 04:55:00
9:15 PM,30.6,22.6,72,30.10,10.0,SSW,5.8,-,N/A,,Mostly Cloudy,210,2014-01-04 05:15:00
9:35 PM,30.7,22.1,70,30.09,10.0,SSW,9.2,-,N/A,,Scattered Clouds,210,2014-01-04 05:35:00
9:55 PM,30.6,21.7,70,30.09,10.0,SSW,6.9,-,N/A,,Clear,200,2014-01-04 05:55:00
10:15 PM,29.3,21.7,73,30.09,10.0,SSW,5.8,-,N/A,,Clear,200,2014-01-04 06:15:00
10:35 PM,28.4,21.2,74,30.11,10.0,WSW,3.5,-,N/A,,Clear,240,2014-01-04 06:35:00
10:55 PM,28.4,21.0,74,30.11,10.0,Calm,Calm,-,N/A,,Mostly Cloudy,0,2014-01-04 06:55:00
11:15 PM,28.4,21.6,76,30.12,10.0,WNW,4.6,-,N/A,,Overcast,300,2014-01-04 07:15:00
11:35 PM,28.4,21.7,76,30.13,10.0,WSW,8.1,-,N/A,,Overcast,240,2014-01-04 07:35:00
11:55 PM,30.0,21.6,71,30.13,10.0,SW,9.2,-,N/A,,Overcast,220,2014-01-04 07:55:00